Location: Ladd Observatory
(41.8387°N, 71.3996°W)
Time: 20:01:58
(UTC-04:00)

ISS - Visible Passes

Search period start: 24 March 2017 00:00
Search period end: 03 April 2017 00:00
Orbit: 399 x 409 km, 51.6° (Epoch: 25 March)

Date Brightness Start Highest point End Pass type
(mag) Time Alt. Az. Time Alt. Az. Time Alt. Az.
24 Mar -1.8 04:51:38 21° SSE 04:51:38 21° SSE 04:52:53 10° SE visible
26 Mar -1.7 19:43:51 10° SSE 19:44:56 11° SE 19:45:37 11° ESE visible
26 Mar -1.2 21:17:41 10° WSW 21:18:22 15° WSW 21:18:22 15° WSW visible
27 Mar -3.7 20:25:25 10° SW 20:28:34 51° SE 20:29:15 41° E visible
28 Mar -2.7 19:33:30 10° SSW 19:36:17 26° SE 19:39:03 10° ENE visible
28 Mar -2.5 21:09:33 10° W 21:12:34 39° NNW 21:12:34 39° NNW visible
29 Mar -3.6 20:16:53 10° WSW 20:20:08 68° NNW 20:22:55 13° NE visible
29 Mar -0.6 21:54:40 10° WNW 21:55:35 14° NW 21:55:35 14° NW visible
30 Mar -1.6 21:01:41 10° WNW 21:04:24 24° NNW 21:05:43 19° NNE visible
31 Mar -2.2 20:08:47 10° W 20:11:47 34° NNW 20:14:49 10° NE visible
31 Mar -0.8 21:46:55 10° NW 21:48:21 15° NNW 21:48:21 15° NNW visible
01 Apr -1.2 20:53:56 10° WNW 20:56:14 17° NNW 20:58:10 12° NNE visible
02 Apr -1.5 20:00:53 10° WNW 20:03:30 22° NNW 20:06:08 10° NE visible
02 Apr -1.0 21:38:54 10° NW 21:40:31 15° N 21:40:31 15° N visible
